Location: ????
(55.5675°N, 37.6272°E)
Time: 09:37:30
(UTC+00:00)

SWAS - Pass Details

Date: 14 April 2026
Orbit: 532 x 544 km, 69.9° (Epoch: 19 May)

Event Time Altitude Azimuth Distance (km) Brightness Sun altitude
Rises 19:28:08 0° 324° (NW) 2,714 9.5 -20.1°
Reaches altitude 10° 19:30:20 10° 327° (NNW) 1,819 8.2 -20.2°
Maximum altitude 19:34:23 66° 51° (NE) 599 4.4 -20.5°
Enters shadow 19:35:02 55° 101° (E) 660 4.4 -20.6°
